Tracking 32932 objects as of 15-Jan-2026
HD Live streaming from Space Station
objects crossing your sky now

THOR ABLESTAR DEB

Track THOR ABLESTAR DEB now!
10-day predictions


NORAD ID: 13511
Int'l Code: 1961-015KU
Perigee: 919.8 km
Apogee: 1,109.8 km
Inclination: 65.8 °
Period: 105.3 minutes
Semi major axis: 7385 km
RCS: 0.0083 m2 (small)
Launch date: June 29, 1961
Source: United States (US)
Launch site: AIR FORCE EASTERN TEST RANGE (AFETR)

Note: This is SATELLITE DEBRIS
Your satellite tracking list
Your tracking list is empty




NASA's NSSDC Master Catalog

Two Line Element Set (TLE):
1 13511U 61015KU  26013.38014733  .00000128  00000-0  23057-3 0  9996
2 13511  65.8400 239.4629 0128607 250.7519 285.5197 13.67745896269925
Source of the keplerian elements: AFSPC